GW6141 Weather Reports


Display with metric or nautical units.
time (UTC)temp
F
wind
direction
speed
MPH
gust
MPH
rain 1hr
in
rain 24hr
in
rain mn
in
humidity
%
barometer
mb
20260508023025 53 275 0.0 0.0 0.00 0.11 0.11 66 1011.7
20260508021520 54 275 0.0 0.0 0.00 0.11 0.11 65 1011.5
20260508020006 54 275 0.0 0.0 0.00 0.11 0.11 64 1011.3
20260508014510 54 275 0.0 0.0 0.00 0.11 0.11 65 1011.0
20260508013007 54 275 0.0 0.0 0.00 0.11 0.11 66 1010.9
20260508011517 54 275 0.0 0.0 0.00 0.11 0.11 66 1010.7
20260508010032 54 275 0.0 0.0 0.00 0.11 0.11 67 1010.6
20260508004508 54 275 0.0 0.0 0.00 0.11 0.11 67 1010.6
20260508003014 55 275 0.0 0.0 0.00 0.11 0.11 68 1010.5
20260508001516 55 275 0.0 0.0 0.00 0.11 0.11 69 1010.5
20260508000021 55 275 0.0 0.0 0.00 0.11 0.11 68 1010.2
20260507234527 55 275 0.0 0.0 0.00 0.11 0.11 69 1009.9
20260507233020 55 275 0.0 0.0 0.00 0.11 0.11 70 1009.7
20260507231522 55 275 0.0 0.0 0.00 0.11 0.11 70 1009.5
20260507230022 55 275 0.0 0.0 0.00 0.11 0.11 71 1009.5
20260507224518 55 275 0.0 0.0 0.00 0.11 0.11 71 1009.5
20260507223016 55 275 0.0 0.0 0.00 0.11 0.11 69 1009.4
20260507221514 55 275 0.0 0.0 0.00 0.11 0.11 68 1009.4
20260507220020 54 275 0.0 0.0 0.00 0.11 0.11 70 1009.3
20260507214524 54 275 0.0 0.0 0.00 0.11 0.11 73 1009.6
20260507213024 54 275 0.0 0.0 0.00 0.11 0.11 67 1009.5
20260507211523 54 275 0.0 0.0 0.00 0.11 0.11 68 1009.3
20260507210015 54 275 0.0 0.0 0.00 0.11 0.11 72 1009.2
20260507204514 54 275 0.0 0.0 0.00 0.11 0.11 68 1009.1
20260507203031 54 146 0.0 0.0 0.00 0.11 0.11 74 1009.3
20260507201528 54 276 0.0 0.0 0.00 0.11 0.11 71 1009.6
20260507200028 54 276 0.0 0.0 0.00 0.11 0.11 68 1009.7
20260507194519 54 276 0.0 0.0 0.00 0.11 0.11 65 1009.7
20260507193022 54 276 0.0 0.0 0.00 0.11 0.11 67 1010.1
20260507191518 54 276 0.0 0.0 0.00 0.11 0.11 67 1010.4
20260507190030 53 276 0.0 0.0 0.00 0.11 0.11 66 1010.5
20260507184510 53 276 0.0 0.0 0.00 0.11 0.11 66 1010.5
20260507183012 53 277 0.0 0.0 0.00 0.11 0.11 65 1010.6
20260507181512 53 279 0.0 3.0 0.00 0.11 0.11 67 1010.7
20260507180015 53 113 0.0 0.0 0.00 0.11 0.11 67 1010.6
20260507174514 53 113 1.0 4.0 0.00 0.11 0.11 68 1010.4
20260507173020 53 113 2.0 3.0 0.00 0.12 0.11 67 1010.2
20260507171514 53 113 1.0 4.0 0.00 0.12 0.11 68 1010.6
20260507170008 54 112 1.0 3.0 0.00 0.12 0.11 64 1010.7
20260507164509 54 113 1.0 4.0 0.00 0.12 0.11 65 1010.7
20260507163014 54 142 0.0 4.0 0.00 0.12 0.11 64 1010.8
20260507161514 53 117 2.0 6.0 0.03 0.12 0.11 66 1010.7
20260507160015 53 108 2.0 6.0 0.03 0.12 0.11 66 1011.0
20260507154512 53 107 1.0 6.0 0.04 0.12 0.11 63 1011.1
20260507153013 53 101 1.0 4.0 0.04 0.12 0.11 64 1011.2
20260507151514 54 96 0.0 3.0 0.01 0.09 0.08 63 1011.2
20260507150023 54 103 2.0 4.0 0.02 0.09 0.08 64 1011.1
20260507144524 54 68 2.0 4.0 0.01 0.08 0.07 64 1011.2
20260507143016 54 111 3.0 4.0 0.02 0.08 0.07 63 1011.0
20260507141514 54 105 1.0 4.0 0.03 0.09 0.07 64 1011.0
20260507140015 54 106 2.0 6.0 0.02 0.10 0.06 66 1011.3
20260507134526 55 105 3.0 6.0 0.02 0.10 0.06 64 1011.0
20260507133016 56 117 2.0 4.0 0.03 0.10 0.05 62 1011.4
20260507131521 56 96 1.0 6.0 0.02 0.09 0.04 65 1011.1
20260507130018 56 103 1.0 4.0 0.02 0.09 0.04 62 1011.1
20260507124526 57 271 1.0 4.0 0.02 0.09 0.04 65 1010.9
20260507123016 57 125 2.0 6.0 0.00 0.07 0.02 65 1010.8
20260507121519 58 313 2.0 9.0 0.00 0.08 0.02 69 1010.7
20260507120023 60 109 3.0 6.0 0.00 0.10 0.02 59 1010.3
20260507114518 60 150 2.0 3.0 0.00 0.10 0.02 58 1010.1
20260507113023 60 151 0.0 0.0 0.00 0.10 0.02 59 1009.6
20260507111517 61 151 0.0 0.0 0.00 0.10 0.02 59 1009.6
20260507110011 61 253 0.0 2.0 0.00 0.10 0.02 57 1009.5
20260507104517 61 251 0.0 0.0 0.00 0.10 0.02 56 1009.4
20260507103013 62 251 0.0 0.0 0.01 0.10 0.02 56 1009.2
20260507101509 62 251 0.0 0.0 0.01 0.10 0.02 55 1009.0
20260507100008 62 251 0.0 0.0 0.01 0.10 0.02 56 1008.9
20260507094504 62 251 0.0 0.0 0.01 0.10 0.02 56 1009.3
20260507093025 62 251 0.0 0.0 0.00 0.09 0.01 56 1008.9
20260507091503 62 251 0.0 0.0 0.00 0.09 0.01 56 1008.9
20260507090019 62 251 0.0 0.0 0.00 0.09 0.01 56 1009.1
20260507084510 63 251 0.0 0.0 0.00 0.09 0.01 57 1009.1
20260507083008 63 251 0.0 0.0 0.00 0.09 0.01 57 1009.1
20260507081506 63 251 0.0 0.0 0.00 0.09 0.01 56 1009.1
20260507080004 63 251 0.0 0.0 0.00 0.09 0.01 57 1009.2
20260507074508 63 251 0.0 0.0 0.00 0.09 0.01 58 1009.3
20260507073016 63 251 0.0 0.0 0.00 0.09 0.01 59 1008.7
20260507071514 63 251 0.0 0.0 0.00 0.09 0.01 58 1009.0
20260507070013 63 251 0.0 0.0 0.00 0.09 0.01 59 1009.0
20260507064509 63 251 0.0 0.0 0.00 0.09 0.01 61 1008.8
20260507063005 63 251 0.0 0.0 0.00 0.09 0.01 62 1008.8
20260507061516 64 251 0.0 0.0 0.00 0.09 0.01 63 1009.1
20260507060024 64 249 0.0 2.0 0.00 0.09 0.01 64 1009.4
20260507054535 64 249 0.0 6.0 0.00 0.09 0.01 64 1009.5
20260507053010 64 114 0.0 3.0 0.00 0.09 0.01 62 1009.3
20260507051510 65 258 0.0 4.0 0.00 0.09 0.01 61 1009.2
20260507050008 65 304 0.0 2.0 0.01 0.09 0.01 61 1009.0
20260507044526 65 271 0.0 2.0 0.01 0.09 0.01 61 1009.0
20260507043025 65 255 0.0 3.0 0.01 0.09 0.01 63 1009.2
20260507041511 65 74 0.0 1.0 0.01 0.09 0.01 64 1009.5
20260507040018 65 107 0.0 1.0 0.00 0.08 0.00 71 1009.9
20260507034512 66 243 0.0 5.0 0.00 0.08 0.08 72 1010.2
20260507033030 65 270 1.0 7.0 0.00 0.08 0.08 72 1010.6
20260507031510 65 283 0.0 2.0 0.00 0.08 0.08 74 1010.0
20260507030018 66 258 0.0 4.0 0.00 0.08 0.08 79 1010.1
20260507024521 66 237 0.0 3.0 0.00 0.08 0.08 80 1010.5